Location: Heathcote
(40.9845°N, 73.7746°W)
Time: 04:55:10
(UTC+00:00)

Okean-O - Pass Details

Date: 29 October 2020
Orbit: 638 x 641 km, 98.2° (Epoch: 27 November)

Event Time Altitude Azimuth Distance (km) Brightness Sun altitude
Rises 22:50:29 0° 145° (SE) 2,933 5.8 -11.2°
Reaches altitude 10° 22:52:48 10° 137° (SE) 2,029 4.9 -11.6°
Maximum altitude 22:56:51 37° 70° (ENE) 1,003 3.1 -12.4°
Drops below altitude 10° 23:00:56 10° 4° (N) 2,041 5.1 -13.2°
Sets 23:03:16 0° 356° (N) 2,954 6.0 -13.6°
